INTELSAT 17 (IS-17)

Last updated on Sun Dec 14 2025 00:02:49 GMT+0000 (Coordinated Universal Time)

1 37238U 10065B 25347.21680174 .00000012 00000+0 00000+0 0 9996 2 37238 0.0060 312.8754 0002538 310.8055 322.5292 1.00271489 51385
UTC large
Height (km)
Speed (km/s)
/
Latitude / Longitude
Inclination (degrees)
Orbital Period (minutes)
Azimuth
Elevation
Range (km)
Doppler Factor

Next 0 passes for location: London (51.5072 / 0.1276)

Sorry there are no passes over London.